Boulder City, NV

12:42 AM PST on November 15, 2019 (GMT -0800)
Boulder City

Weather History for KBVU - September, 2019

Change the Weather History Date:

Thursday, September 19, 2019

  Actual Average (WUND) Record (WUND)
Temperature  
Mean Temperature 78 °F -  
Max Temperature 89 °F - - (-1)
Min Temperature 68 °F - - (-1)
Cooling Degree Days 14    
Growing Degree Days 28 (Base 50)    
Moisture  
Dew Point 26 °F    
Average Humidity 16    
Maximum Humidity 28    
Minimum Humidity 6    
Precipitation  
Precipitation 0.00 in - - ()
Sea Level Pressure  
Sea Level Pressure 29.75 in    
Wind  
Wind Speed 11 mph ()    
Max Wind Speed 29 mph    
Max Gust Speed 34 mph    
Visibility 10.0 miles    
Events      
Averages and records for this station are not official NWS values.
T = Trace of Precipitation, MM = Missing Value Source: Averaged Metar Reports

Daily Weather History Graph

Daily Weather History Graph

Search for Another Location

Airport or City:

Astronomy

Sep. 19, 2019 Rise Set
Actual Time 6:24 AM PDT 6:40 PM PDT
Civil Twilight 5:59 AM PDT 7:06 PM PDT
Nautical Twilight 5:29 AM PDT 7:36 PM PDT
Astronomical Twilight 4:58 AM PDT 8:06 PM PDT
Moon 10:02 PM PDT (9/19) 11:23 AM PDT (9/19)
Length of Visible Light 13h 07m
Length of Day
12h 15m
Waning Gibbous, 73% of the Moon is Illuminated
Sep 19
Waning Gibbous
Sep 21
Last Quarter
Sep 28
New
Oct 5
First Quarter
Oct 13
Full

Hourly Weather History & Observations

Time (PDT) Temp. Dew Point Humidity Pressure Visibility Wind Dir Wind Speed Gust Speed Precip Events Conditions
12:15 AM 75.2 °F 23.0 °F 14% 29.78 in 10.0 mi SW 4.6 mph - N/A   Partly Cloudy
12:35 AM 71.6 °F 28.4 °F 20% 29.78 in 10.0 mi Calm Calm - N/A   Clear
12:55 AM 75.2 °F 30.2 °F 19% 29.78 in 10.0 mi SE 6.9 mph - N/A   Clear
1:15 AM 75.2 °F 30.2 °F 19% 29.78 in 10.0 mi South 10.4 mph - N/A   Partly Cloudy
1:35 AM 75.2 °F 28.4 °F 18% 29.77 in 10.0 mi South 9.2 mph - N/A   Partly Cloudy
1:55 AM 75.2 °F 28.4 °F 18% 29.78 in 10.0 mi South 6.9 mph - N/A   Clear
2:15 AM 73.4 °F 30.2 °F 20% 29.78 in 10.0 mi Calm Calm - N/A   Partly Cloudy
2:35 AM 73.4 °F 30.2 °F 20% 29.78 in 10.0 mi SSE 8.1 mph - N/A   Scattered Clouds
2:55 AM 73.4 °F 32.0 °F 22% 29.78 in 10.0 mi SSE 9.2 mph - N/A   Partly Cloudy
3:15 AM 73.4 °F 33.8 °F 23% 29.77 in 10.0 mi SSE 10.4 mph - N/A   Scattered Clouds
3:35 AM 71.6 °F 33.8 °F 25% 29.77 in 10.0 mi South 6.9 mph - N/A   Partly Cloudy
3:55 AM 71.6 °F 33.8 °F 25% 29.77 in 10.0 mi South 5.8 mph - N/A   Partly Cloudy
4:15 AM 68.0 °F 32.0 °F 26% 29.77 in 10.0 mi Variable 4.6 mph - N/A   Partly Cloudy
4:35 AM 69.8 °F 33.8 °F 27% 29.77 in 10.0 mi West 5.8 mph - N/A   Scattered Clouds
4:55 AM 68.0 °F 33.8 °F 28% 29.77 in 10.0 mi SW 5.8 mph - N/A   Partly Cloudy
5:15 AM 68.0 °F 33.8 °F 28% 29.77 in 10.0 mi SSW 8.1 mph - N/A   Partly Cloudy
5:35 AM 69.8 °F 33.8 °F 27% 29.77 in 10.0 mi SSW 10.4 mph - N/A   Partly Cloudy
5:55 AM 71.6 °F 33.8 °F 25% 29.76 in 10.0 mi South 10.4 mph - N/A   Scattered Clouds
6:15 AM 69.8 °F 33.8 °F 27% 29.77 in 10.0 mi South 8.1 mph - N/A   Clear
6:55 AM 69.8 °F 33.8 °F 27% 29.77 in 10.0 mi South 10.4 mph - N/A   Clear
7:15 AM 73.4 °F 35.6 °F 25% 29.78 in 10.0 mi South 13.8 mph - N/A   Clear
7:35 AM 75.2 °F 35.6 °F 24% 29.78 in 10.0 mi SSE 15.0 mph - N/A   Clear
7:55 AM 77.0 °F 37.4 °F 24% 29.78 in 10.0 mi South 11.5 mph - N/A   Clear
8:15 AM 77.0 °F 37.4 °F 24% 29.79 in 10.0 mi SSW 16.1 mph 24.2 mph N/A   Clear
8:35 AM 78.8 °F 37.4 °F 23% 29.80 in 10.0 mi SSW 18.4 mph 26.5 mph N/A   Clear
8:55 AM 78.8 °F 37.4 °F 23% 29.79 in 10.0 mi SSW 20.7 mph 27.6 mph N/A   Clear
9:15 AM 78.8 °F 37.4 °F 23% 29.79 in 10.0 mi SW 24.2 mph 31.1 mph N/A   Clear
9:35 AM 80.6 °F 37.4 °F 21% 29.79 in 10.0 mi SW 25.3 mph - N/A   Clear
9:55 AM 80.6 °F 37.4 °F 21% 29.79 in 10.0 mi SW 21.9 mph 31.1 mph N/A   Clear
10:15 AM 80.6 °F 37.4 °F 21% 29.80 in 10.0 mi SW 21.9 mph 27.6 mph N/A   Clear
10:35 AM 82.4 °F 37.4 °F 20% 29.80 in 10.0 mi SW 18.4 mph 25.3 mph N/A   Clear
10:55 AM 82.4 °F 37.4 °F 20% 29.79 in 10.0 mi SW 17.3 mph 24.2 mph N/A   Clear
11:15 AM 84.2 °F 35.6 °F 18% 29.78 in 10.0 mi SW 20.7 mph - N/A   Clear
11:35 AM 86.0 °F 33.8 °F 15% 29.76 in 10.0 mi SW 24.2 mph - N/A   Clear
11:55 AM 86.0 °F 32.0 °F 14% 29.76 in 10.0 mi SW 23.0 mph 28.8 mph N/A   Clear
12:15 PM 86.0 °F 30.2 °F 13% 29.77 in 10.0 mi WSW 20.7 mph 29.9 mph N/A   Clear
12:35 PM 87.8 °F 28.4 °F 12% 29.75 in 10.0 mi WSW 20.7 mph 27.6 mph N/A   Clear
12:55 PM 87.8 °F 21.2 °F 9% 29.75 in 10.0 mi SW 24.2 mph - N/A   Clear
1:15 PM 87.8 °F 21.2 °F 9% 29.74 in 10.0 mi WSW 23.0 mph 29.9 mph N/A   Clear
1:35 PM 87.8 °F 21.2 °F 9% 29.73 in 10.0 mi WSW 24.2 mph 32.2 mph N/A   Clear
1:55 PM 87.8 °F 21.2 °F 9% 29.73 in 10.0 mi WSW 20.7 mph 27.6 mph N/A   Clear
2:15 PM 87.8 °F 23.0 °F 9% 29.72 in 10.0 mi WSW 21.9 mph - N/A   Clear
2:35 PM 87.8 °F 19.4 °F 8% 29.72 in 10.0 mi WSW 19.6 mph 27.6 mph N/A   Clear
2:55 PM 87.8 °F 15.8 °F 7% 29.71 in 10.0 mi WSW 19.6 mph 28.8 mph N/A   Clear
3:15 PM 89.6 °F 17.6 °F 7% 29.70 in 10.0 mi WSW 17.3 mph 27.6 mph N/A   Clear
3:35 PM 87.8 °F 21.2 °F 9% 29.69 in 10.0 mi SW 23.0 mph 29.9 mph N/A   Clear
3:55 PM 87.8 °F 21.2 °F 9% 29.69 in 10.0 mi SW 20.7 mph 27.6 mph N/A   Clear
4:15 PM 87.8 °F 15.8 °F 7% 29.69 in 10.0 mi WSW 17.3 mph 28.8 mph N/A   Clear
4:35 PM 87.8 °F 14.0 °F 6% 29.69 in 10.0 mi WSW 23.0 mph 29.9 mph N/A   Clear
4:55 PM 87.8 °F 10.4 °F 6% 29.68 in 10.0 mi WSW 20.7 mph 29.9 mph N/A   Clear
5:15 PM 86.0 °F 10.4 °F 6% 29.68 in 10.0 mi WSW 20.7 mph 28.8 mph N/A   Clear
5:35 PM 86.0 °F 12.2 °F 6% 29.69 in 10.0 mi SW 18.4 mph 26.5 mph N/A   Clear
5:55 PM 84.2 °F 15.8 °F 8% 29.69 in 10.0 mi SW 19.6 mph - N/A   Clear
6:15 PM 84.2 °F 15.8 °F 8% 29.69 in 10.0 mi WSW 17.3 mph - N/A   Clear
6:35 PM 82.4 °F 14.0 °F 8% 29.70 in 10.0 mi WSW 16.1 mph 21.9 mph N/A   Clear
6:55 PM 80.6 °F 10.4 °F 7% 29.70 in 10.0 mi SW 15.0 mph 20.7 mph N/A   Clear
7:15 PM 78.8 °F 10.4 °F 7% 29.70 in 10.0 mi SSW 12.7 mph - N/A   Clear
7:35 PM 77.0 °F 10.4 °F 8% 29.70 in 10.0 mi SW 10.4 mph - N/A   Clear
7:55 PM 75.2 °F 12.2 °F 9% 29.71 in 10.0 mi SSW 9.2 mph - N/A   Clear
8:15 PM 75.2 °F 14.0 °F 10% 29.71 in 10.0 mi SSW 6.9 mph - N/A   Clear
8:35 PM 75.2 °F 14.0 °F 10% 29.72 in 10.0 mi SSW 8.1 mph - N/A   Clear
8:55 PM 75.2 °F 14.0 °F 10% 29.73 in 10.0 mi SSW 5.8 mph - N/A   Clear
9:15 PM 73.4 °F 14.0 °F 10% 29.74 in 10.0 mi SW 4.6 mph - N/A   Partly Cloudy
9:35 PM 75.2 °F 12.2 °F 9% 29.74 in 10.0 mi West 17.3 mph - N/A   Clear
9:55 PM 75.2 °F 15.8 °F 11% 29.75 in 10.0 mi West 12.7 mph 21.9 mph N/A   Clear
10:15 PM 75.2 °F 19.4 °F 12% 29.76 in 10.0 mi WSW 11.5 mph 19.6 mph N/A   Scattered Clouds
10:35 PM 73.4 °F 21.2 °F 14% 29.76 in 10.0 mi WSW 11.5 mph 21.9 mph N/A   Partly Cloudy
10:55 PM 73.4 °F 24.8 °F 16% 29.77 in 10.0 mi WNW 12.7 mph 26.5 mph N/A   Scattered Clouds
11:15 PM 73.4 °F 28.4 °F 19% 29.77 in 10.0 mi NW 28.8 mph 34.5 mph N/A   Scattered Clouds
11:35 PM 71.6 °F 28.4 °F 20% 29.78 in 10.0 mi NW 24.2 mph 31.1 mph N/A   Partly Cloudy
11:55 PM 71.6 °F 28.4 °F 20% 29.78 in 10.0 mi NW 19.6 mph 29.9 mph N/A   Partly Cloudy